GW7162 Weather Reports


Display with metric or nautical units.
time (UTC)temp
F
wind
direction
speed
MPH
gust
MPH
rain 1hr
in
rain 24hr
in
rain mn
in
humidity
%
barometer
mb
20260507070341 42 175 0.0 0.0 0.00 0.00 0.00 83 1019.1
20260507065837 42 175 0.0 0.0 0.00 0.00 0.00 82 1019.2
20260507065334 42 175 0.0 0.0 0.00 0.00 0.00 81 1019.0
20260507064831 42 175 0.0 0.0 0.00 0.00 0.00 81 1019.0
20260507064330 42 175 0.0 0.0 0.00 0.00 0.00 80 1019.3
20260507063827 42 175 0.0 0.0 0.00 0.00 0.00 80 1019.0
20260507063324 42 175 0.0 0.0 0.00 0.00 0.00 80 1019.0
20260507062820 43 175 0.0 0.0 0.00 0.00 0.00 79 1019.1
20260507062318 43 175 0.0 0.0 0.00 0.00 0.00 78 1019.0
20260507061816 43 175 0.0 0.0 0.00 0.00 0.00 77 1019.2
20260507061313 43 175 0.0 0.0 0.00 0.00 0.00 76 1019.0
20260507060812 44 175 0.0 0.0 0.00 0.00 0.00 77 1019.1
20260507060308 44 175 0.0 0.0 0.00 0.00 0.00 74 1019.1
20260507055804 44 175 0.0 0.0 0.00 0.00 0.00 74 1018.9
20260507055300 45 175 0.0 0.0 0.00 0.00 0.00 74 1019.1
20260507054756 45 175 0.0 0.0 0.00 0.00 0.00 73 1019.0
20260507054253 45 175 0.0 0.0 0.00 0.00 0.00 72 1019.1
20260507053750 45 175 0.0 0.0 0.00 0.00 0.00 72 1019.1
20260507053248 46 175 0.0 0.0 0.00 0.00 0.00 71 1019.1
20260507052746 46 175 0.0 0.0 0.00 0.00 0.00 71 1019.1
20260507052243 46 175 0.0 0.0 0.00 0.00 0.00 71 1019.0
20260507051741 46 175 0.0 0.0 0.00 0.00 0.00 69 1018.9
20260507051237 46 175 0.0 0.0 0.00 0.00 0.00 69 1019.1
20260507050734 47 175 0.0 0.0 0.00 0.00 0.00 69 1018.9
20260507050231 47 175 0.0 0.0 0.00 0.00 0.00 69 1018.7
20260507045728 47 175 0.0 0.0 0.00 0.00 0.00 66 1018.7
20260507045224 47 175 0.0 0.0 0.00 0.00 0.00 66 1018.7
20260507044721 48 174 0.0 0.0 0.00 0.00 0.00 64 1018.8
20260507044218 48 174 0.0 0.0 0.00 0.00 0.00 65 1018.8
20260507043714 48 174 0.0 0.0 0.00 0.00 0.00 65 1018.7
20260507043211 48 179 0.0 0.0 0.00 0.00 0.00 64 1018.5
20260507042707 49 176 0.0 0.0 0.00 0.00 0.00 63 1018.8
20260507042202 49 174 0.0 0.0 0.00 0.00 0.00 62 1018.6
20260507041700 49 174 0.0 0.0 0.00 0.00 0.00 63 1018.7
20260507041156 49 170 0.0 0.0 0.00 0.00 0.00 61 1018.8
20260507040653 49 173 0.0 0.0 0.00 0.00 0.00 63 1018.7
20260507040149 49 170 0.0 0.0 0.00 0.00 0.00 63 1018.8
20260507035646 50 171 0.0 0.0 0.00 0.00 0.00 62 1018.7
20260507035142 50 171 0.0 0.0 0.00 0.00 0.00 60 1018.8
20260507034639 50 174 0.0 0.0 0.00 0.00 0.00 62 1018.7
20260507034136 50 172 0.0 0.0 0.00 0.00 0.00 59 1018.5
20260507033634 51 104 1.0 2.0 0.00 0.00 0.00 58 1018.6
20260507033131 50 147 0.0 0.0 0.00 0.00 0.00 60 1018.6
20260507032629 50 195 0.0 0.0 0.00 0.00 0.00 62 1018.5
20260507032124 50 181 0.0 0.0 0.00 0.00 0.00 61 1018.6
20260507031622 51 175 0.0 0.0 0.00 0.00 0.00 60 1018.5
20260507031118 50 169 0.0 0.0 0.00 0.00 0.00 62 1018.5
20260507030615 50 174 0.0 0.0 0.00 0.00 0.00 64 1018.2
20260507030113 51 175 0.0 0.0 0.00 0.00 0.00 63 1018.2
20260507025610 51 171 0.0 0.0 0.00 0.00 0.00 62 1018.4
20260507025106 51 170 0.0 0.0 0.00 0.00 0.00 61 1018.2
20260507024605 51 173 0.0 0.0 0.00 0.00 0.00 62 1018.3
20260507024102 51 175 0.0 0.0 0.00 0.00 0.00 61 1018.3
20260507023557 52 170 0.0 0.0 0.00 0.00 0.00 59 1018.2
20260507023055 52 178 0.0 0.0 0.00 0.00 0.00 61 1018.2
20260507022551 52 175 0.0 0.0 0.00 0.00 0.00 60 1018.2
20260507022046 53 174 0.0 0.0 0.00 0.00 0.00 58 1018.1
20260507021543 53 214 0.0 0.0 0.00 0.00 0.00 56 1018.2
20260507021039 53 174 0.0 0.0 0.00 0.00 0.00 58 1018.0
20260507020537 53 177 0.0 0.0 0.00 0.00 0.00 55 1017.9
20260507020033 54 173 0.0 0.0 0.00 0.00 0.00 55 1017.8
20260507015532 54 177 0.0 0.0 0.00 0.00 0.00 55 1017.8
20260507015029 55 170 0.0 0.0 0.00 0.00 0.00 51 1017.7
20260507014526 55 177 0.0 0.0 0.00 0.00 0.00 53 1017.8
20260507014021 55 174 0.0 0.0 0.00 0.00 0.00 53 1017.7
20260507013518 55 166 0.0 0.0 0.00 0.00 0.00 51 1017.7
20260507013015 55 177 0.0 0.0 0.00 0.00 0.00 53 1017.7
20260507012512 56 157 1.0 1.0 0.00 0.00 0.00 48 1017.6
20260507012009 56 181 0.0 0.0 0.00 0.00 0.00 52 1017.6
20260507011506 56 112 1.0 2.0 0.00 0.00 0.00 50 1017.5
20260507011002 56 181 0.0 0.0 0.00 0.00 0.00 50 1017.4
20260507010456 56 178 0.0 0.0 0.00 0.00 0.00 51 1017.6
20260507005953 57 173 0.0 0.0 0.00 0.00 0.00 50 1017.3
20260507005451 57 358 0.0 2.0 0.00 0.00 0.00 47 1017.2
20260507004947 57 172 0.0 0.0 0.00 0.00 0.00 47 1017.3
20260507004444 57 24 1.0 2.0 0.00 0.00 0.00 48 1017.3
20260507003942 57 172 0.0 0.0 0.00 0.00 0.00 46 1017.2
20260507003436 57 171 0.0 0.0 0.00 0.00 0.00 49 1017.0
20260507002932 58 176 0.0 0.0 0.00 0.00 0.00 47 1017.2
20260507002428 58 179 0.0 0.0 0.00 0.00 0.00 46 1017.0
20260507001926 58 176 0.0 0.0 0.00 0.00 0.00 48 1017.1
20260507001422 58 160 0.0 0.0 0.00 0.00 0.00 46 1017.0
20260507000919 58 153 0.0 1.0 0.00 0.00 0.00 45 1016.9
20260507000414 59 37 1.0 3.0 0.00 0.00 0.00 46 1016.8
20260506235911 59 171 1.0 1.0 0.00 0.00 0.00 45 1016.8
20260506235409 59 137 2.0 3.0 0.00 0.00 0.00 44 1016.5
20260506234903 59 102 1.0 1.0 0.00 0.00 0.00 44 1016.4
20260506234402 59 176 0.0 0.0 0.00 0.00 0.00 44 1016.3
20260506233859 59 169 0.0 0.0 0.00 0.00 0.00 45 1016.0
20260506233355 59 340 2.0 2.0 0.00 0.00 0.00 43 1016.0
20260506232852 59 24 2.0 2.0 0.00 0.00 0.00 43 1016.1
20260506232348 60 153 0.0 0.0 0.00 0.00 0.00 43 1016.1
20260506231844 60 55 0.0 1.0 0.00 0.00 0.00 42 1016.1
20260506231342 60 134 0.0 0.0 0.00 0.00 0.00 43 1016.0
20260506230839 60 138 2.0 3.0 0.00 0.00 0.00 43 1016.1
20260506230336 60 100 2.0 3.0 0.00 0.00 0.00 43 1016.1
20260506225832 61 177 1.0 2.0 0.00 0.00 0.00 42 1016.1
20260506225329 61 107 0.0 1.0 0.00 0.00 0.00 44 1016.1
20260506224826 61 16 2.0 3.0 0.00 0.00 0.00 42 1016.1
20260506224324 60 169 0.0 0.0 0.00 0.00 0.00 45 1016.1
20260506223820 60 358 6.0 8.0 0.00 0.00 0.00 43 1016.0
20260506223314 61 38 2.0 2.0 0.00 0.00 0.00 43 1016.1
20260506222813 61 297 2.0 2.0 0.00 0.00 0.00 46 1016.1
20260506222308 61 48 0.0 1.0 0.00 0.00 0.00 45 1016.1
20260506221806 61 7 2.0 3.0 0.00 0.00 0.00 46 1015.9
20260506221304 62 127 0.0 0.0 0.00 0.00 0.00 45 1016.0
20260506220802 62 176 0.0 0.0 0.00 0.00 0.00 50 1015.9
20260506220302 61 116 1.0 2.0 0.00 0.00 0.00 46 1016.1
20260506215758 61 75 0.0 1.0 0.00 0.00 0.00 46 1016.1
20260506215254 61 174 0.0 1.0 0.00 0.00 0.00 48 1016.0
20260506214750 61 325 1.0 1.0 0.00 0.00 0.00 45 1016.0
20260506214248 62 120 0.0 1.0 0.00 0.00 0.00 48 1015.9
20260506213746 62 180 0.0 0.0 0.00 0.00 0.00 48 1016.1
20260506213243 61 166 0.0 0.0 0.00 0.00 0.00 48 1016.4
20260506212740 61 154 1.0 2.0 0.00 0.00 0.00 44 1016.3
20260506212236 62 61 1.0 2.0 0.00 0.00 0.00 44 1016.7
20260506211731 62 73 0.0 1.0 0.00 0.00 0.00 45 1016.5
20260506211227 61 176 0.0 0.0 0.00 0.00 0.00 52 1016.5
20260506210725 61 140 1.0 2.0 0.00 0.00 0.00 44 1016.9
20260506210222 62 172 0.0 1.0 0.00 0.00 0.00 45 1016.8
20260506205719 62 102 0.0 0.0 0.00 0.00 0.00 45 1017.0
20260506205214 60 146 0.0 0.0 0.00 0.00 0.00 45 1016.8
20260506204711 62 160 0.0 0.0 0.00 0.00 0.00 45 1017.0
20260506204208 62 153 0.0 1.0 0.00 0.00 0.00 47 1016.8
20260506203707 63 82 2.0 4.0 0.00 0.00 0.00 44 1016.8
20260506203203 63 67 0.0 1.0 0.00 0.00 0.00 48 1016.7
20260506202701 62 227 2.0 2.0 0.00 0.00 0.00 48 1016.9
20260506202157 62 4 2.0 3.0 0.00 0.00 0.00 46 1017.0
20260506201654 61 1 4.0 7.0 0.00 0.00 0.00 44 1017.0
20260506201150 62 159 2.0 2.0 0.00 0.00 0.00 45 1017.1
20260506200647 63 123 3.0 6.0 0.00 0.00 0.00 43 1017.1
20260506200144 62 213 1.0 3.0 0.00 0.00 0.00 43 1017.1
20260506195641 62 307 3.0 6.0 0.00 0.00 0.00 43 1017.4
20260506195137 62 89 2.0 3.0 0.00 0.00 0.00 47 1017.4
20260506194635 62 158 3.0 3.0 0.00 0.00 0.00 46 1017.3
20260506194130 61 182 0.0 1.0 0.00 0.00 0.00 50 1017.6
20260506193629 62 156 1.0 2.0 0.00 0.00 0.00 48 1017.5
20260506193126 61 59 2.0 2.0 0.00 0.00 0.00 49 1017.6
20260506192622 61 128 0.0 0.0 0.00 0.00 0.00 49 1017.5
20260506192118 61 190 1.0 2.0 0.00 0.00 0.00 52 1017.6
20260506191615 60 172 0.0 1.0 0.00 0.00 0.00 50 1017.6
20260506191111 62 37 0.0 1.0 0.00 0.00 0.00 49 1017.7
20260506190609 60 42 4.0 6.0 0.00 0.00 0.00 48 1017.8
20260506190105 59 165 1.0 1.0 0.00 0.00 0.00 52 1018.0
20260506185603 60 280 0.0 0.0 0.00 0.00 0.00 49 1018.0
20260506185059 60 197 0.0 1.0 0.00 0.00 0.00 52 1018.3
20260506184556 59 195 0.0 1.0 0.00 0.00 0.00 53 1018.2
20260506184054 59 169 1.0 2.0 0.00 0.00 0.00 53 1018.6
20260506183549 59 136 1.0 1.0 0.00 0.00 0.00 59 1018.7
20260506183046 60 164 0.0 1.0 0.00 0.00 0.00 51 1018.7
20260506182543 60 163 1.0 1.0 0.00 0.00 0.00 57 1018.8
20260506182041 59 154 0.0 1.0 0.00 0.00 0.00 55 1018.7
20260506181539 58 177 0.0 0.0 0.00 0.00 0.00 56 1018.8
20260506181035 59 180 0.0 0.0 0.00 0.00 0.00 53 1018.8
20260506180532 59 249 3.0 4.0 0.00 0.00 0.00 55 1018.7
20260506180028 58 331 1.0 2.0 0.00 0.00 0.00 55 1018.6
20260506175525 57 95 0.0 0.0 0.00 0.00 0.00 61 1018.6
20260506175021 58 138 2.0 2.0 0.00 0.00 0.00 58 1018.6
20260506174520 57 176 1.0 1.0 0.00 0.00 0.00 59 1018.5
20260506174015 57 141 2.0 3.0 0.00 0.00 0.00 58 1018.7
20260506173514 58 349 2.0 3.0 0.00 0.00 0.00 57 1018.6
20260506173010 58 137 0.0 0.0 0.00 0.00 0.00 61 1018.9
20260506172508 58 199 0.0 0.0 0.00 0.00 0.00 60 1018.9
20260506172004 58 136 0.0 0.0 0.00 0.00 0.00 58 1018.9
20260506171501 57 139 0.0 1.0 0.00 0.00 0.00 58 1018.7
20260506170959 57 185 0.0 0.0 0.00 0.00 0.00 58 1018.5
20260506170455 57 180 0.0 1.0 0.00 0.00 0.00 61 1018.4
20260506165954 58 39 2.0 3.0 0.00 0.00 0.00 56 1018.3
20260506165452 57 175 0.0 0.0 0.00 0.00 0.00 61 1018.2
20260506164948 56 355 2.0 3.0 0.00 0.00 0.00 58 1018.4
20260506164444 56 74 0.0 0.0 0.00 0.00 0.00 60 1018.3
20260506163942 57 96 0.0 0.0 0.00 0.00 0.00 60 1018.2
20260506163437 57 153 1.0 2.0 0.00 0.00 0.00 58 1018.4
20260506162932 57 95 0.0 1.0 0.00 0.00 0.00 58 1018.3
20260506162430 57 335 2.0 2.0 0.00 0.00 0.00 57 1018.2
20260506161927 57 141 1.0 1.0 0.00 0.00 0.00 57 1018.2
20260506161426 57 132 3.0 3.0 0.00 0.00 0.00 57 1018.2
20260506160923 57 170 0.0 0.0 0.00 0.00 0.00 58 1018.2
20260506160420 55 178 0.0 0.0 0.00 0.00 0.00 62 1018.4
20260506155918 54 140 1.0 2.0 0.00 0.00 0.00 61 1018.2
20260506155415 55 217 0.0 1.0 0.00 0.00 0.00 60 1018.0
20260506153536 52 31 4.0 4.0 0.00 0.00 0.00 64 1018.1
20260506153034 53 174 0.0 0.0 0.00 0.00 0.00 65 1018.0
20260506152531 52 323 2.0 2.0 0.00 0.00 0.00 67 1017.9
20260506152029 52 90 0.0 0.0 0.00 0.00 0.00 66 1017.9
20260506151526 51 155 0.0 0.0 0.00 0.00 0.00 66 1018.2
20260506151023 51 149 0.0 0.0 0.00 0.00 0.00 68 1018.2
20260506150519 51 114 2.0 2.0 0.00 0.00 0.00 66 1018.1
20260506150017 51 116 2.0 4.0 0.00 0.00 0.00 66 1018.3
20260506145513 51 142 0.0 0.0 0.00 0.00 0.00 72 1018.2
20260506145011 50 139 1.0 1.0 0.00 0.00 0.00 70 1018.0
20260506144507 50 109 0.0 0.0 0.00 0.00 0.00 69 1017.9
20260506144005 50 162 0.0 0.0 0.00 0.00 0.00 72 1018.0
20260506143502 50 47 2.0 3.0 0.00 0.00 0.00 71 1018.1
20260506143001 50 157 2.0 2.0 0.00 0.00 0.00 73 1017.8
20260506142458 50 63 2.0 2.0 0.00 0.00 0.00 74 1017.9
20260506141955 50 110 1.0 1.0 0.00 0.00 0.00 73 1017.8
20260506141453 50 153 0.0 0.0 0.00 0.00 0.00 76 1018.1
20260506140952 49 172 0.0 0.0 0.00 0.00 0.00 78 1018.0
20260506140448 49 129 1.0 1.0 0.00 0.00 0.00 77 1017.8
20260506135945 48 7 2.0 2.0 0.00 0.00 0.00 77 1017.6
20260506135443 48 156 0.0 0.0 0.00 0.00 0.00 78 1017.5
20260506134938 48 173 0.0 1.0 0.00 0.00 0.00 80 1017.9
20260506134435 49 168 0.0 0.0 0.00 0.00 0.00 80 1017.9
20260506133932 48 180 0.0 0.0 0.00 0.00 0.00 84 1017.7
20260506133429 48 190 0.0 0.0 0.00 0.00 0.00 82 1017.4
20260506132925 48 39 1.0 2.0 0.00 0.00 0.00 84 1017.4
20260506132422 47 128 2.0 2.0 0.00 0.00 0.00 85 1017.2
20260506131920 47 151 0.0 0.0 0.00 0.00 0.00 88 1017.6
20260506131416 47 109 1.0 2.0 0.00 0.00 0.00 88 1017.5
20260506130913 46 180 0.0 0.0 0.00 0.00 0.00 89 1017.6
20260506130410 46 90 1.0 1.0 0.00 0.00 0.00 89 1017.7
20260506125908 46 175 0.0 0.0 0.00 0.00 0.00 90 1017.8
20260506125406 46 175 0.0 0.0 0.00 0.00 0.00 89 1017.7
20260506124904 46 138 0.0 0.0 0.00 0.00 0.00 90 1017.8
20260506124401 46 39 2.0 3.0 0.00 0.00 0.00 90 1017.9
20260506123858 46 160 0.0 0.0 0.00 0.00 0.00 91 1017.7
20260506123356 46 158 0.0 0.0 0.00 0.00 0.00 90 1017.8
20260506122854 46 162 0.0 0.0 0.00 0.00 0.00 90 1017.9
20260506122350 46 177 0.0 1.0 0.00 0.00 0.00 90 1017.9
20260506121849 46 36 1.0 2.0 0.00 0.00 0.00 91 1017.6
20260506121345 46 167 0.0 0.0 0.00 0.00 0.00 91 1017.6
20260506120842 45 168 0.0 0.0 0.00 0.00 0.00 91 1017.4
20260506120340 45 168 0.0 0.0 0.00 0.00 0.00 92 1017.7
20260506115837 45 174 0.0 0.0 0.00 0.00 0.00 93 1017.6
20260506115335 45 183 0.0 0.0 0.00 0.00 0.00 93 1017.7
20260506114833 45 138 0.0 0.0 0.00 0.00 0.00 93 1017.2
20260506114330 45 157 0.0 1.0 0.00 0.00 0.00 93 1017.3
20260506113829 45 177 0.0 0.0 0.00 0.00 0.00 93 1017.0
20260506113326 45 116 0.0 0.0 0.00 0.00 0.00 93 1017.0
20260506112823 45 156 0.0 0.0 0.00 0.00 0.00 93 1016.7
20260506112320 45 166 0.0 0.0 0.00 0.00 0.00 93 1016.4
20260506111817 45 174 0.0 0.0 0.00 0.00 0.00 93 1016.3
20260506111315 45 172 0.0 0.0 0.00 0.00 0.00 93 1016.5
20260506110813 45 173 0.0 0.0 0.00 0.00 0.00 93 1016.3
20260506110309 45 217 0.0 0.0 0.00 0.00 0.00 93 1016.2
20260506105806 45 177 0.0 0.0 0.00 0.00 0.00 93 1015.9
20260506105305 45 113 2.0 3.0 0.00 0.00 0.00 92 1015.8
20260506104800 45 161 1.0 1.0 0.00 0.00 0.00 92 1015.8
20260506104258 45 245 1.0 2.0 0.00 0.00 0.00 92 1015.8
20260506103755 45 141 0.0 0.0 0.00 0.00 0.00 91 1015.7
20260506103253 45 294 1.0 1.0 0.00 0.00 0.00 91 1016.0
20260506102750 45 175 0.0 0.0 0.00 0.00 0.00 91 1015.8
20260506102248 45 32 1.0 2.0 0.00 0.00 0.00 90 1015.7
20260506101745 45 143 0.0 0.0 0.00 0.00 0.00 90 1015.5
20260506101241 45 130 1.0 1.0 0.00 0.00 0.00 90 1015.7
20260506100739 45 213 0.0 1.0 0.00 0.00 0.00 90 1015.4
20260506100237 45 138 1.0 2.0 0.00 0.00 0.00 90 1015.2
20260506095735 45 194 1.0 1.0 0.00 0.00 0.00 89 1015.1
20260506095232 46 177 0.0 1.0 0.00 0.00 0.00 88 1015.2
20260506094728 46 151 0.0 0.0 0.00 0.00 0.00 89 1015.4
20260506094227 46 169 0.0 0.0 0.00 0.00 0.00 89 1015.3
20260506093725 46 176 0.0 0.0 0.00 0.00 0.00 88 1014.8
20260506093222 46 153 0.0 1.0 0.00 0.00 0.00 87 1014.5
20260506092720 46 157 0.0 1.0 0.00 0.00 0.00 87 1014.8
20260506092217 46 169 0.0 0.0 0.00 0.00 0.00 86 1015.3
20260506091715 46 173 0.0 0.0 0.00 0.00 0.00 87 1015.3
20260506091212 46 186 0.0 0.0 0.00 0.00 0.00 87 1015.6
20260506090710 46 183 0.0 0.0 0.00 0.00 0.00 86 1014.9
20260506090206 46 166 0.0 0.0 0.00 0.00 0.00 84 1014.3
20260506085703 46 172 0.0 0.0 0.00 0.00 0.00 85 1014.4
20260506085159 46 175 0.0 0.0 0.00 0.00 0.00 85 1014.6
20260506084656 46 175 0.0 0.0 0.00 0.00 0.00 86 1014.3
20260506084152 46 181 0.0 0.0 0.00 0.00 0.00 87 1014.1
20260506083649 46 170 0.0 0.0 0.00 0.00 0.00 85 1013.5
20260506083147 46 167 0.0 0.0 0.00 0.00 0.00 85 1013.4
20260506082644 46 164 0.0 0.0 0.00 0.00 0.00 86 1013.2
20260506082145 46 158 0.0 0.0 0.00 0.00 0.00 86 1012.8
20260506081643 46 130 0.0 0.0 0.00 0.00 0.00 86 1012.9
20260506081141 46 337 2.0 2.0 0.00 0.00 0.00 87 1013.1
20260506080638 46 152 0.0 0.0 0.00 0.00 0.00 87 1013.0
20260506080134 45 188 0.0 0.0 0.00 0.00 0.00 88 1013.3
20260506073119 45 171 0.0 0.0 0.00 0.00 0.00 91 1013.5
20260506072615 45 165 0.0 0.0 0.00 0.00 0.00 90 1013.7
20260506072113 45 173 0.0 0.0 0.00 0.00 0.00 90 1014.1
20260506071610 45 111 0.0 0.0 0.00 0.00 0.00 89 1014.3
20260506071108 45 166 0.0 0.0 0.00 0.00 0.00 89 1014.2
20260506070605 45 166 0.0 0.0 0.00 0.00 0.00 90 1014.3